Date,TemperatureHighF,TemperatureAvgF,TemperatureLowF,DewpointHighF,DewpointAvgF,DewpointLowF,HumidityHigh,HumidityAvg,HumidityLow,PressureMaxIn,PressureMinIn,WindSpeedMaxMPH,WindSpeedAvgMPH,GustSpeedMaxMPH,PrecipitationSumIn
2013-1-1,40,36,28,30,24,12,72,61,49,29.97,29.80,13,8,0,0.00
2013-1-2,31,27,22,18,14,9,64,57,51,30.12,29.96,11,6,0,0.00
2013-1-3,32,26,19,20,16,12,75,66,52,30.17,30.03,8,4,0,0.00
2013-1-4,38,35,32,24,23,20,69,62,53,30.04,29.90,10,6,0,0.00
2013-1-5,42,36,31,27,24,20,81,62,50,30.24,29.95,11,5,0,0.00
2013-1-6,44,38,34,33,29,25,88,71,57,30.19,29.93,7,2,0,0.00
2013-1-7,43,38,32,32,29,23,78,70,57,30.37,30.00,8,2,0,0.00
2013-1-8,49,40,33,34,30,25,80,68,54,30.40,30.30,8,3,0,0.00
2013-1-9,49,40,32,40,34,28,91,79,59,30.36,30.10,11,3,0,0.00
2013-1-10,47,42,36,35,29,24,78,58,44,30.52,30.16,15,5,0,0.00
2013-1-11,43,39,37,42,33,28,95,82,67,30.51,30.09,11,5,0,0.00
2013-1-12,43,42,41,42,41,40,97,96,95,30.15,30.04,16,6,0,0.00
2013-1-13,49,42,39,48,41,38,98,97,96,30.14,29.99,6,1,0,0.00
2013-1-14,54,47,37,52,44,32,98,89,71,30.25,29.91,13,4,0,0.00
2013-1-15,38,37,35,32,29,27,86,75,66,30.31,30.18,14,9,0,0.00
2013-1-16,37,35,33,35,33,28,95,92,70,30.21,29.77,19,8,0,0.00
2013-1-17,43,39,34,35,30,23,91,71,54,30.06,29.88,17,5,0,0.00
2013-1-18,34,28,24,25,13,5,70,54,39,30.46,29.99,20,8,0,0.00
2013-1-19,50,40,27,36,26,14,71,57,40,30.40,29.90,12,7,0,0.00
2013-1-20,53,44,31,32,26,12,69,51,31,29.99,29.65,14,9,0,0.00
2013-1-21,32,29,25,21,14,9,73,54,45,30.07,29.80,10,3,0,0.00
2013-1-22,28,20,14,20,3,-7,70,47,33,30.15,29.78,15,11,0,0.00
2013-1-23,18,15,12,-1,-3,-7,53,45,36,30.21,30.12,14,8,0,0.00
2013-1-24,23,17,14,7,2,-3,71,51,35,30.34,30.10,15,8,0,0.00
2013-1-25,23,18,15,18,8,1,89,63,44,30.37,30.03,11,4,0,0.00
2013-1-26,26,21,17,15,10,5,81,64,45,30.32,30.00,11,6,0,0.00
2013-1-27,33,26,20,14,11,7,72,54,37,30.48,30.32,8,5,0,0.00
2013-1-28,35,31,25,33,25,13,93,79,54,30.45,29.97,7,2,0,0.00
2013-1-29,37,35,34,36,34,32,95,93,91,30.14,29.96,11,5,0,0.00
2013-1-30,56,48,36,54,47,35,97,94,91,30.09,29.39,17,7,0,0.00
2013-1-31,55,41,30,53,24,12,94,52,39,29.73,29.15,15,12,0,0.00
2013-2-1,30,28,25,15,11,5,56,47,36,30.18,29.72,15,10,0,0.00
2013-2-2,29,25,21,21,11,4,89,56,34,30.27,30.05,10,6,0,0.00
2013-2-3,30,26,23,22,19,16,90,75,58,30.06,29.75,12,5,0,0.00
2013-2-4,30,27,24,22,13,9,78,55,43,29.95,29.76,12,7,0,0.00
2013-2-5,31,28,27,28,24,14,92,84,56,29.96,29.88,13,8,0,0.00
2013-2-6,38,32,28,28,23,11,92,69,44,30.33,29.89,10,5,0,0.00
2013-2-7,32,28,25,25,13,5,76,54,37,30.49,30.32,15,8,0,0.00
2013-2-8,34,32,27,33,29,25,96,91,76,30.33,29.57,33,24,0,0.00
2013-2-9,29,26,22,26,21,10,96,84,58,30.28,29.67,18,10,0,0.00
2013-2-10,36,25,17,22,11,4,80,57,33,30.45,30.27,9,3,0,0.00
2013-2-11,46,37,27,45,35,22,97,92,81,30.31,29.64,7,1,0,0.00
2013-2-12,43,40,36,40,30,25,97,69,56,29.93,29.67,10,5,0,0.00
2013-2-13,39,35,30,32,28,24,88,74,55,29.92,29.67,13,2,0,0.00
2013-2-14,44,37,32,35,29,24,92,76,45,29.98,29.68,15,4,0,0.00
2013-2-15,51,41,33,37,34,30,90,77,56,29.99,29.90,6,2,0,0.00
2013-2-16,41,34,29,36,28,21,92,77,61,29.93,29.69,22,10,0,0.00
2013-2-17,30,26,17,21,9,2,71,49,32,29.91,29.59,21,14,0,0.00
2013-2-18,34,25,18,15,9,4,59,50,37,30.19,29.91,16,8,0,0.00
2013-2-19,46,38,28,43,31,15,93,76,50,30.19,29.63,9,3,0,0.00
2013-2-20,39,31,25,30,17,10,70,55,44,29.92,29.65,14,10,0,0.00
2013-2-21,33,28,24,19,14,12,70,57,48,30.24,29.91,19,10,0,0.00
2013-2-22,35,31,26,30,24,19,85,75,69,30.37,30.22,26,8,0,0.00
2013-2-23,36,35,34,35,33,30,96,93,86,30.26,29.80,20,10,0,0.00
2013-2-24,44,38,33,38,33,27,96,84,63,29.92,29.70,13,6,0,0.00
2013-2-25,45,38,32,33,27,24,87,67,49,30.21,29.92,7,3,0,0.00
2013-2-26,37,36,34,34,33,32,94,90,83,30.28,29.94,24,9,0,0.00
2013-2-27,43,39,35,42,37,33,97,94,79,29.93,29.47,28,16,0,0.00
2013-2-28,42,40,37,38,36,32,93,85,72,29.60,29.51,6,1,0,0.00
2013-3-1,44,39,35,35,31,28,90,76,59,29.73,29.56,9,4,0,0.00
2013-3-2,39,36,31,30,27,24,90,69,60,29.73,29.65,8,4,0,0.00
2013-3-3,38,33,29,28,23,20,86,67,54,29.70,29.62,11,6,0,0.00
2013-3-4,39,33,28,24,21,17,70,62,53,29.85,29.70,13,9,0,0.00
2013-3-5,47,37,31,33,26,21,83,64,45,30.00,29.85,9,3,0,0.00
2013-3-6,39,38,35,35,33,31,90,85,73,29.97,29.84,35,21,0,0.00
2013-3-7,36,34,32,33,31,29,94,88,77,30.03,29.88,31,17,0,0.00
2013-3-8,40,34,30,35,31,27,96,89,61,30.13,29.95,14,8,0,0.00
2013-3-9,54,41,34,32,28,22,85,60,29,30.30,30.13,10,3,0,0.00
2013-3-10,40,36,32,35,33,30,94,87,80,30.37,30.29,9,3,0,0.00
2013-3-11,52,42,36,46,39,33,94,88,71,30.31,30.08,8,2,0,0.00
2013-3-12,54,51,44,52,48,38,95,88,78,30.09,29.64,15,8,0,0.00
2013-3-13,50,42,36,39,32,24,89,69,40,29.85,29.76,10,4,0,0.00
2013-3-14,38,34,28,30,16,8,74,49,30,29.91,29.81,20,11,0,0.00
2013-3-15,43,36,30,31,19,8,68,50,36,29.93,29.69,14,7,0,0.00
2013-3-16,40,34,31,30,25,19,92,71,55,29.88,29.75,14,5,0,0.00
2013-3-17,37,34,30,28,21,14,86,61,40,30.28,29.88,19,6,0,0.00
2013-3-18,34,31,29,32,20,14,95,65,45,30.39,30.06,24,16,0,0.00
2013-3-19,39,36,33,36,34,31,95,92,82,30.04,29.64,30,14,0,0.00
2013-3-20,43,37,32,32,22,19,82,57,40,29.84,29.75,10,6,0,0.00
2013-3-21,38,32,29,28,26,19,90,78,54,29.81,29.61,12,4,0,0.00
2013-3-22,39,34,29,24,20,13,69,55,44,29.83,29.68,12,7,0,0.00
2013-3-23,44,38,34,25,22,19,64,53,41,29.88,29.76,12,8,0,0.00
2013-3-24,44,38,33,29,24,19,68,57,44,29.91,29.69,9,3,0,0.00
2013-3-25,39,37,36,34,32,28,90,79,67,29.71,29.42,23,12,0,0.00
2013-3-26,49,41,37,32,29,27,77,63,44,29.82,29.53,17,4,0,0.00
2013-3-27,50,42,35,31,28,25,73,58,38,29.92,29.81,10,4,0,0.00
2013-3-28,49,42,36,35,32,29,77,68,52,30.06,29.91,8,4,0,0.00
2013-3-29,54,46,39,33,30,27,69,56,36,30.10,30.01,8,4,0,0.00
2013-3-30,56,46,38,33,29,22,77,55,26,30.13,30.03,8,4,0,0.00
2013-3-31,54,44,35,42,35,-100,94,75,43,30.10,29.64,10,3,0,0.00
2013-4-1,61,47,38,45,38,15,96,74,39,29.86,29.57,14,5,0,0.00
2013-4-2,42,37,33,18,16,11,54,41,30,30.04,29.86,12,8,0,0.00
2013-4-3,44,38,33,17,15,12,52,40,28,30.25,30.03,15,10,0,0.00
2013-4-4,50,39,33,33,22,14,73,52,32,30.36,30.08,13,5,0,0.00
2013-4-5,59,46,41,37,29,19,83,55,23,30.08,29.66,11,5,0,0.00
2013-4-6,50,41,35,30,18,4,69,41,16,30.29,29.93,15,6,0,0.00
2013-4-7,51,45,36,44,36,28,85,71,52,30.29,29.98,13,6,0,0.00
2013-4-8,70,53,41,47,43,39,94,72,33,30.07,29.96,5,2,0,0.00
2013-4-9,77,60,43,53,44,39,94,61,26,30.00,29.88,9,3,0,0.00
2013-4-10,64,51,44,53,46,40,93,82,47,29.94,29.76,17,3,0,0.00
2013-4-11,54,48,44,48,45,40,97,88,72,30.06,29.77,11,2,0,0.00
2013-4-12,44,42,40,41,39,35,95,90,74,30.05,29.71,27,20,0,0.00
2013-4-13,55,46,39,40,37,35,93,74,48,29.95,29.72,17,6,0,0.00
2013-4-14,54,49,44,42,35,27,80,60,37,30.19,29.93,12,5,0,0.00
2013-4-15,54,45,40,41,36,31,81,71,43,30.36,30.20,10,4,0,0.00
2013-4-16,60,52,43,52,46,37,94,81,69,30.36,30.10,12,5,0,0.00
2013-4-17,65,56,48,53,43,32,89,63,32,30.27,30.08,12,2,0,0.00
2013-4-18,58,52,46,52,44,39,91,76,50,30.34,30.10,11,4,0,0.00
2013-4-19,68,60,50,61,57,48,96,91,79,30.10,29.65,17,8,0,0.00
2013-4-20,60,53,47,58,39,27,94,64,35,30.23,29.65,11,6,0,0.00
2013-4-21,53,44,38,33,25,20,65,48,28,30.60,30.23,15,6,0,0.00
2013-4-22,47,44,41,39,35,31,81,71,59,30.65,30.48,23,16,0,0.00
2013-4-23,47,44,40,42,38,34,88,82,75,30.48,30.08,24,17,0,0.00
2013-4-24,65,50,42,50,44,38,93,79,54,30.08,29.84,10,5,0,0.00
2013-4-25,64,54,47,51,35,23,93,52,22,30.24,29.83,14,6,0,0.00
2013-4-26,65,53,42,42,37,26,91,58,24,30.37,30.23,11,2,0,0.00
2013-4-27,66,54,43,41,35,23,74,51,21,30.40,30.27,12,2,0,0.00
2013-4-28,65,51,43,48,39,-100,91,69,30,30.30,30.20,7,2,0,0.00
2013-4-29,58,54,50,48,45,41,88,73,56,30.23,30.18,3,1,0,0.00
2013-4-30,56,51,48,47,44,32,92,77,41,30.32,30.19,10,5,0,0.00
2013-5-1,60,52,46,49,43,32,84,74,55,30.46,30.31,9,4,0,0.00
2013-5-2,69,54,44,50,46,42,95,75,47,30.46,30.30,5,1,0,0.00
2013-5-3,57,52,46,48,43,40,88,73,53,30.45,30.34,17,7,0,0.00
2013-5-4,64,52,45,49,45,40,95,78,57,30.36,30.23,11,3,0,0.00
2013-5-5,55,49,45,48,42,39,85,79,70,30.29,30.21,16,7,0,0.00
2013-5-6,56,50,44,50,46,41,92,85,76,30.26,30.14,11,5,0,0.00
2013-5-7,58,53,47,56,50,46,96,92,87,30.16,30.08,9,2,0,0.00
2013-5-8,64,56,53,61,54,51,98,94,85,30.10,29.98,15,5,0,0.00
2013-5-9,64,55,51,59,53,50,98,95,80,30.01,29.87,10,3,0,0.00
2013-5-10,74,62,53,59,53,-100,95,77,53,29.98,29.89,6,2,0,0.00
2013-5-11,66,61,57,61,58,55,95,90,79,29.89,29.69,10,4,0,0.00
2013-5-12,69,60,53,59,45,-100,97,64,28,29.88,29.63,11,4,0,0.00
2013-5-13,56,50,46,36,31,25,65,47,35,30.06,29.88,13,6,0,0.00
2013-5-14,59,51,43,41,33,25,71,53,27,30.09,30.00,8,4,0,0.00
2013-5-15,64,56,48,54,47,40,87,72,50,30.05,29.66,11,3,0,0.00
2013-5-16,78,60,55,57,32,-100,92,62,33,29.79,29.67,7,3,0,0.00
2013-5-17,70,61,56,52,38,-100,70,52,35,30.17,29.79,7,2,0,0.00
2013-5-18,65,57,54,55,52,43,92,83,57,30.29,30.18,7,2,0,0.00
2013-5-19,57,56,55,56,54,50,97,92,81,30.32,30.16,8,1,0,0.00
2013-5-20,79,66,56,67,61,55,98,88,67,30.17,29.95,7,2,0,0.00
2013-5-21,86,72,62,70,65,59,96,82,58,29.96,29.83,5,3,0,0.00
2013-5-22,69,60,55,66,58,54,97,93,87,29.93,29.83,21,5,0,0.00
2013-5-23,75,68,64,67,64,62,95,89,77,29.89,29.76,12,6,0,0.00
2013-5-24,67,58,47,64,55,43,97,91,78,29.89,29.66,12,4,0,0.00
2013-5-25,51,47,44,45,42,41,92,84,70,29.93,29.84,12,8,0,0.00
2013-5-26,64,54,48,47,41,38,74,62,39,30.16,29.88,12,7,0,0.00
2013-5-27,72,61,51,48,41,38,72,51,29,30.21,30.10,6,3,0,0.00
2013-5-28,59,56,51,57,52,46,96,88,62,30.21,30.12,5,1,0,0.00
2013-5-29,80,63,56,69,59,55,97,88,69,30.12,29.98,4,1,0,0.00
2013-5-30,88,73,62,69,65,58,93,78,49,30.10,30.04,5,1,0,0.00
2013-7-20,84,82,80,71,69,68,73,66,58,29.80,29.75,2,0,0,0.00
2013-7-21,79,76,74,72,69,65,87,80,71,29.95,29.80,12,4,0,0.00
2013-7-22,77,74,72,74,71,70,96,93,86,29.95,29.81,13,5,0,0.00
2013-7-23,87,77,72,76,72,70,97,87,65,29.80,29.51,4,1,0,0.00
2013-7-24,83,76,70,73,69,59,97,81,67,29.91,29.58,15,3,0,0.00
2013-7-25,69,64,62,61,58,54,89,79,70,30.04,29.90,23,17,0,0.00
2013-7-26,80,70,64,66,62,60,89,79,56,30.02,29.96,20,7,0,0.00
2013-7-27,82,73,67,70,66,63,93,79,52,30.04,29.96,6,1,0,0.00
2013-7-28,78,72,67,70,68,65,97,86,68,29.98,29.92,6,0,0,0.00
2013-7-29,84,75,69,72,67,55,97,78,45,30.06,29.93,3,1,0,0.00
2013-7-30,80,72,64,64,60,58,83,67,48,30.14,30.06,5,1,0,0.00
2013-7-31,82,73,65,64,61,56,85,68,43,30.13,30.03,4,1,0,0.00
2013-8-1,76,70,67,68,65,63,95,86,69,30.03,29.82,4,1,0,0.00
2013-8-2,84,74,68,68,66,60,96,78,46,29.88,29.77,5,1,0,0.00
2013-8-3,79,72,68,66,64,59,86,76,59,29.89,29.82,5,1,0,0.00
2013-8-4,78,71,64,66,60,55,88,70,50,29.92,29.81,7,2,0,0.00
2013-8-5,77,68,62,59,53,47,75,60,38,30.03,29.92,5,1,0,0.00
2013-8-6,80,69,61,65,60,57,95,75,52,30.11,30.01,10,2,0,0.00
2013-8-7,79,71,63,67,63,58,89,75,61,30.13,30.07,3,1,0,0.00
2013-8-8,83,74,69,74,69,66,91,85,72,30.07,29.99,8,4,0,0.00
2013-8-9,82,76,74,76,73,70,95,90,81,30.01,29.78,8,5,0,0.00
2013-8-10,82,75,67,73,65,57,95,72,54,30.02,29.83,5,3,0,0.00
2013-8-11,78,71,63,63,58,54,81,63,45,30.10,30.01,8,2,0,0.00
2013-8-12,75,71,69,68,66,62,94,84,69,30.02,29.91,7,2,0,0.00
2013-8-13,72,69,68,71,66,-100,96,91,84,29.92,29.69,8,2,0,0.00
2013-8-14,73,65,62,67,51,-100,96,66,49,29.99,29.71,10,6,0,0.00
2013-8-15,77,62,61,59,38,-100,79,59,38,30.11,30.01,7,3,0,0.00
2013-8-16,81,67,59,62,54,-100,93,68,44,30.18,30.10,7,2,0,0.00
2013-8-17,76,69,61,63,60,58,93,75,57,30.27,30.18,8,2,0,0.00
2013-8-18,72,68,64,67,61,-100,90,82,72,30.24,30.11,9,4,0,0.00
2013-8-19,78,66,63,66,48,-100,85,74,63,30.11,30.01,5,3,0,0.00
2013-8-20,87,74,66,67,63,-100,92,72,44,30.10,30.01,5,2,0,0.00
2013-8-21,89,76,67,70,66,60,97,75,40,30.16,30.03,5,2,0,0.00
2013-8-22,80,73,70,75,70,68,96,91,82,30.04,29.84,8,2,0,0.00
2013-8-23,81,74,70,70,64,60,95,74,53,30.08,29.84,13,4,0,0.00
2013-8-24,70,69,68,63,61,59,79,74,71,30.13,30.08,19,15,0,0.00
2013-8-25,84,75,66,63,57,52,86,55,35,30.36,30.20,5,3,0,0.00
2013-8-26,80,76,70,69,65,56,94,71,59,30.20,29.90,6,2,0,0.00
2013-8-27,83,73,70,73,69,68,96,89,66,29.90,29.78,8,3,0,0.00
2013-8-28,78,76,72,72,71,69,93,85,79,29.88,29.83,7,2,0,0.00
2013-8-29,74,71,68,70,67,63,96,87,74,30.02,29.87,15,7,0,0.00
2013-8-30,83,73,66,71,66,62,90,80,58,30.02,29.84,6,3,0,0.00
2013-8-31,83,76,71,73,71,68,90,83,70,29.85,29.77,7,4,0,0.00
2013-9-1,84,76,73,74,70,-100,93,85,69,29.84,29.78,6,3,0,0.00
2013-9-2,79,75,73,75,73,70,96,93,85,29.80,29.69,5,1,0,0.00
2013-9-3,79,73,70,73,67,58,98,82,57,29.85,29.69,8,3,0,0.00
2013-9-4,82,71,64,62,58,53,84,65,43,29.96,29.85,7,3,0,0.00
2013-9-5,76,70,65,62,57,46,80,64,45,30.11,29.89,18,6,0,0.00
2013-9-6,71,62,57,51,48,42,81,60,36,30.23,30.11,18,7,0,0.00
2013-9-7,79,66,57,59,52,47,81,63,37,30.11,29.88,6,3,0,0.00
2013-9-8,79,70,65,67,57,-100,79,66,52,30.04,29.79,19,5,0,0.00
2013-9-9,69,64,59,58,51,47,81,64,53,30.22,30.05,21,7,0,0.00
2013-9-10,81,73,65,72,67,59,90,83,73,30.14,30.02,7,4,0,0.00
2013-9-11,93,80,74,78,72,70,91,78,58,30.08,29.96,7,4,0,0.00
2013-9-12,85,76,69,74,70,67,96,84,66,29.98,29.67,8,4,0,0.00
2013-9-13,75,68,61,68,63,53,96,83,62,29.81,29.60,8,3,0,0.00
2013-9-14,66,60,54,53,50,48,79,68,57,30.08,29.80,7,4,0,0.00
2013-9-15,71,59,51,57,48,-100,87,71,44,30.18,30.06,4,2,0,0.00
2013-9-16,70,64,59,59,55,49,89,75,58,30.21,30.01,20,5,0,0.00
2013-9-17,59,53,51,49,43,39,76,68,56,30.40,30.21,26,20,0,0.00
2013-10-7,66,63,62,64,58,53,93,83,72,29.93,29.84,8,4,0,0.00
2013-10-8,65,61,56,53,47,42,77,62,45,30.29,29.92,20,9,0,0.00
2013-10-9,61,59,55,53,50,46,82,73,62,30.37,30.27,24,17,0,0.00
2013-10-10,62,58,55,56,53,50,88,84,76,30.27,30.06,24,20,0,0.00
2013-10-11,67,62,59,62,57,48,88,83,57,30.07,29.99,24,17,0,0.00
2013-10-12,65,62,60,58,52,47,85,72,57,30.28,30.05,25,20,0,0.00
2013-10-13,60,57,54,55,50,-100,86,80,75,30.37,30.27,22,14,0,0.00
2013-10-14,60,55,52,53,49,46,92,79,64,30.35,30.24,10,3,0,0.00
2013-10-15,63,57,50,57,52,48,96,86,69,30.25,30.12,11,3,0,0.00
2013-10-16,62,59,54,58,55,50,93,85,79,30.09,29.90,12,5,0,0.00
2013-10-17,73,64,60,63,60,58,93,87,69,29.91,29.69,8,3,0,0.00
2013-10-18,67,63,58,62,50,44,92,65,46,29.95,29.65,9,5,0,0.00
2013-10-19,63,57,49,55,48,44,87,72,50,29.97,29.72,4,1,0,0.00
2013-10-20,61,56,52,56,41,-100,89,59,41,30.03,29.71,8,5,0,0.00
2013-10-21,66,57,49,49,43,36,79,61,33,30.12,29.97,7,2,0,0.00
2013-10-22,67,57,49,52,48,45,93,74,51,29.97,29.72,15,2,0,0.00
2013-10-23,54,51,47,45,38,35,71,61,53,29.79,29.59,16,10,0,0.00
2013-10-24,54,48,43,38,34,28,74,59,40,29.88,29.71,8,6,0,0.00
2014-1-2,32,26,18,26,23,16,93,89,72,30.25,29.66,31,25,0,0.00